Torna al catalogo

SL-8 R/B

AttivoLEO
NORAD 21984·ROCKET BODY·🇷🇺 Russia

Lanciato Jun 3, 1992 da Plesetsk Cosmodrome

Loading…

Prossimi Passaggi (prossime 24 ore)

TLE

AggiornatoSource: Space-Track

Epoca: Sep 14, 2026, 14:13 UTC

1 21984U 92030J   26257.59301282 -.00000061  00000-0 -42686-3 0  9998
2 21984  73.9999 292.0427 0122982  77.0080  91.3492 12.22269230529568

Traccia SL-8 R/B in tempo reale con AllMySat

Download on the App Store